Chipley, FL

8:18 PM CDT on April 23, 2018 (GMT -0500)
Chipley

Weather History for KVSH - August, 2014

Change the Weather History Date:

Friday, August 15, 2014

  Actual Average (KDHN) Record (KDHN)
Temperature  
Mean Temperature 84 °F -  
Max Temperature 91 °F 88 °F 100 °F (2007)
Min Temperature 78 °F 71 °F 63 °F (2004)
Cooling Degree Days 20    
Growing Degree Days 34 (Base 50)    
Moisture  
Dew Point 64 °F    
Average Humidity 49    
Maximum Humidity 58    
Minimum Humidity 41    
Precipitation  
Precipitation 0.00 in - - ()
Sea Level Pressure  
Sea Level Pressure 30.00 in    
Wind  
Wind Speed 3 mph (NNW)    
Max Wind Speed 9 mph    
Max Gust Speed -    
Visibility 10 miles    
Events      
Averages and records for this station are not official NWS values.
T = Trace of Precipitation, MM = Missing Value Source: NWS Daily Summary

Daily Weather History Graph

Daily Weather History Graph

Search for Another Location

Airport or City:

Astronomy

Aug. 15, 2014 Rise Set
Actual Time 6:08 AM CDT 7:24 PM CDT
Civil Twilight 5:43 AM CDT 7:49 PM CDT
Nautical Twilight 5:13 AM CDT 8:19 PM CDT
Astronomical Twilight 4:41 AM CDT 8:51 PM CDT
Moon 10:53 PM CDT (8/15) 11:24 AM CDT (8/15)
Length of Visible Light 14h 06m
Length of Day
13h 15m
Waning Gibbous, 69% of the Moon is Illuminated
Aug 15
Waning Gibbous
Aug 17
Last Quarter
Aug 25
New
Sep 2
First Quarter
Sep 8
Full

Hourly Weather History & Observations

Time (CDT) Temp. Heat Index Dew Point Humidity Pressure Visibility Wind Dir Wind Speed Gust Speed Precip Events Conditions
12:15 AM 84.2 °F 85.0 °F 62.6 °F 48% 30.00 in 10.0 mi Calm Calm - N/A   Mostly Cloudy
12:35 AM 84.2 °F 85.0 °F 62.6 °F 48% 30.00 in 10.0 mi Calm Calm - N/A   Partly Cloudy
12:55 AM 82.4 °F 83.4 °F 62.6 °F 51% 30.00 in 10.0 mi North 3.5 mph - N/A   Partly Cloudy
1:15 AM 82.4 °F 83.4 °F 62.6 °F 51% 30.00 in 10.0 mi NE 4.6 mph - N/A   Clear
1:35 AM 82.4 °F 83.4 °F 62.6 °F 51% 30.00 in 10.0 mi NE 4.6 mph - N/A   Partly Cloudy
1:55 AM 80.6 °F 81.8 °F 62.6 °F 54% 30.00 in 10.0 mi NNE 3.5 mph - N/A   Partly Cloudy
2:15 AM 80.6 °F 81.8 °F 62.6 °F 54% 30.00 in 10.0 mi ENE 4.6 mph - N/A   Clear
2:35 AM 80.6 °F 81.8 °F 62.6 °F 54% 30.00 in 10.0 mi NNE 3.5 mph - N/A   Clear
2:55 AM 80.6 °F 81.8 °F 62.6 °F 54% 30.00 in 10.0 mi ENE 4.6 mph - N/A   Clear
3:15 AM 80.6 °F 81.8 °F 62.6 °F 54% 30.00 in 10.0 mi Calm Calm - N/A   Clear
3:35 AM 80.6 °F 81.8 °F 62.6 °F 54% 30.00 in 10.0 mi Calm Calm - N/A   Clear
3:55 AM 80.6 °F 81.8 °F 62.6 °F 54% 30.01 in 10.0 mi Calm Calm - N/A   Partly Cloudy
4:15 AM 80.6 °F 81.8 °F 62.6 °F 54% 30.01 in 10.0 mi Calm Calm - N/A   Clear
4:35 AM 80.6 °F 81.8 °F 62.6 °F 54% 30.00 in 10.0 mi Calm Calm - N/A   Clear
4:55 AM 78.8 °F - 62.6 °F 57% 30.00 in 10.0 mi Calm Calm - N/A   Clear
5:15 AM 80.6 °F 81.8 °F 62.6 °F 54% 30.00 in 10.0 mi Calm Calm - N/A   Clear
5:35 AM 78.8 °F - 62.6 °F 57% 30.00 in 10.0 mi Calm Calm - N/A   Clear
5:55 AM 78.8 °F - 62.6 °F 57% 30.00 in 10.0 mi Calm Calm - N/A   Clear
6:15 AM 78.8 °F - 62.6 °F 57% 30.01 in 10.0 mi Calm Calm - N/A   Clear
6:35 AM 78.8 °F - 62.6 °F 57% 30.02 in 10.0 mi Calm Calm - N/A   Clear
6:55 AM 78.8 °F - 62.6 °F 57% 30.02 in 10.0 mi Calm Calm - N/A   Clear
7:15 AM 80.6 °F 81.8 °F 62.6 °F 54% 30.03 in 10.0 mi Calm Calm - N/A   Clear
7:35 AM 78.8 °F - 62.6 °F 57% 30.04 in 10.0 mi North 5.8 mph - N/A   Clear
7:55 AM 80.6 °F 81.8 °F 62.6 °F 54% 30.04 in 10.0 mi North 3.5 mph - N/A   Clear
8:15 AM 80.6 °F 82.3 °F 64.4 °F 58% 30.05 in 10.0 mi Calm Calm - N/A   Clear
8:35 AM 82.4 °F 83.9 °F 64.4 °F 54% 30.05 in 10.0 mi Calm Calm - N/A   Clear
8:55 AM 84.2 °F 85.0 °F 62.6 °F 48% 30.05 in 10.0 mi Calm Calm - N/A   Clear
9:15 AM 87.8 °F 89.4 °F 64.4 °F 46% 30.06 in 10.0 mi SSW 4.6 mph - N/A   Clear
9:35 AM 87.8 °F 89.4 °F 64.4 °F 46% 30.06 in 10.0 mi Calm Calm - N/A   Clear
9:55 AM 87.8 °F 89.4 °F 64.4 °F 46% 30.06 in 10.0 mi West 3.5 mph - N/A   Clear
10:15 AM 87.8 °F 89.4 °F 64.4 °F 46% 30.06 in 10.0 mi WSW 3.5 mph - N/A   Clear
10:35 AM 87.8 °F 89.4 °F 64.4 °F 46% 30.06 in 10.0 mi West 6.9 mph - N/A   Partly Cloudy
10:55 AM 87.8 °F 89.4 °F 64.4 °F 46% 30.06 in 10.0 mi WNW 6.9 mph - N/A   Mostly Cloudy
11:15 AM 87.8 °F 90.4 °F 66.2 °F 49% 30.05 in 10.0 mi WNW 5.8 mph - N/A   Mostly Cloudy
11:35 AM 87.8 °F 89.4 °F 64.4 °F 46% 30.04 in 10.0 mi West 3.5 mph - N/A   Overcast
11:55 AM 87.8 °F 89.4 °F 64.4 °F 46% 30.04 in 10.0 mi WNW 5.8 mph - N/A   Overcast
12:15 PM 87.8 °F 89.4 °F 64.4 °F 46% 30.03 in 10.0 mi WNW 5.8 mph - N/A   Overcast
12:35 PM 87.8 °F 89.4 °F 64.4 °F 46% 30.03 in 10.0 mi NNW 6.9 mph - N/A   Mostly Cloudy
12:55 PM 87.8 °F 89.4 °F 64.4 °F 46% 30.02 in 10.0 mi NNE 6.9 mph - N/A   Mostly Cloudy
1:15 PM 89.6 °F 91.1 °F 64.4 °F 43% 30.01 in 10.0 mi WNW 6.9 mph - N/A   Mostly Cloudy
1:35 PM 89.6 °F 91.1 °F 64.4 °F 43% 30.01 in 10.0 mi NW 8.1 mph - N/A   Mostly Cloudy
1:55 PM 89.6 °F 91.1 °F 64.4 °F 43% 30.00 in 10.0 mi NNW 9.2 mph - N/A   Partly Cloudy
2:15 PM 89.6 °F 91.1 °F 64.4 °F 43% 30.00 in 10.0 mi NNW 5.8 mph - N/A   Clear
2:35 PM 89.6 °F 91.1 °F 64.4 °F 43% 30.00 in 10.0 mi WNW 8.1 mph - N/A   Partly Cloudy
2:55 PM 89.6 °F 91.1 °F 64.4 °F 43% 30.00 in 10.0 mi NNW 3.5 mph - N/A   Clear
3:15 PM 91.4 °F 93.2 °F 64.4 °F 41% 29.99 in 10.0 mi NNW 4.6 mph - N/A   Partly Cloudy
3:35 PM 89.6 °F 91.1 °F 64.4 °F 43% 29.99 in 10.0 mi NNW 6.9 mph - N/A   Scattered Clouds
3:55 PM 91.4 °F 93.2 °F 64.4 °F 41% 29.98 in 10.0 mi NNW 6.9 mph - N/A   Mostly Cloudy
4:15 PM 91.4 °F 94.0 °F 66.2 °F 43% 29.98 in 10.0 mi North 3.5 mph - N/A   Partly Cloudy
4:35 PM 91.4 °F 94.0 °F 66.2 °F 43% 29.98 in 10.0 mi NW 5.8 mph - N/A   Clear
4:55 PM 91.4 °F 93.2 °F 64.4 °F 41% 29.97 in 10.0 mi North 5.8 mph - N/A   Clear
5:15 PM 91.4 °F 94.0 °F 66.2 °F 43% 29.97 in 10.0 mi NNE 5.8 mph - N/A   Clear
5:35 PM 89.6 °F 91.1 °F 64.4 °F 43% 29.98 in 10.0 mi NNE 5.8 mph - N/A   Clear
5:55 PM 89.6 °F 91.1 °F 64.4 °F 43% 29.97 in 10.0 mi NNE 6.9 mph - N/A   Clear
6:15 PM 89.6 °F 91.1 °F 64.4 °F 43% 29.97 in 10.0 mi NW 5.8 mph - N/A   Clear
6:35 PM 89.6 °F 91.1 °F 64.4 °F 43% 29.96 in 10.0 mi North 3.5 mph - N/A   Clear
6:55 PM 89.6 °F 91.1 °F 64.4 °F 43% 29.96 in 10.0 mi North 4.6 mph - N/A   Clear
7:15 PM 89.6 °F 91.1 °F 64.4 °F 43% 29.96 in 10.0 mi NNE 4.6 mph - N/A   Clear
7:35 PM 87.8 °F 89.4 °F 64.4 °F 46% 29.95 in 10.0 mi North 3.5 mph - N/A   Clear
7:55 PM 87.8 °F 89.4 °F 64.4 °F 46% 29.96 in 10.0 mi NE 3.5 mph - N/A   Clear
8:15 PM 87.8 °F 89.4 °F 64.4 °F 46% 29.96 in 10.0 mi Calm Calm - N/A   Mostly Cloudy
8:35 PM 87.8 °F 89.4 °F 64.4 °F 46% 29.96 in 10.0 mi SE 3.5 mph - N/A   Mostly Cloudy
8:55 PM 87.8 °F 90.4 °F 66.2 °F 49% 29.97 in 10.0 mi Calm Calm - N/A   Mostly Cloudy
9:15 PM 87.8 °F 91.4 °F 68.0 °F 52% 29.98 in 10.0 mi SSW 4.6 mph - N/A   Mostly Cloudy
9:35 PM 86.0 °F 89.4 °F 68.0 °F 55% 29.99 in 10.0 mi South 4.6 mph - N/A   Mostly Cloudy
9:55 PM 87.8 °F 91.4 °F 68.0 °F 52% 29.99 in 10.0 mi South 3.5 mph - N/A   Clear
10:15 PM 87.8 °F 90.4 °F 66.2 °F 49% 30.00 in 10.0 mi South 4.6 mph - N/A   Clear
10:35 PM 86.0 °F 89.4 °F 68.0 °F 55% 30.00 in 10.0 mi SSE 3.5 mph - N/A   Clear
10:55 PM 86.0 °F 89.4 °F 68.0 °F 55% 30.00 in 10.0 mi SSE 4.6 mph - N/A   Mostly Cloudy
11:15 PM 86.0 °F 88.2 °F 66.2 °F 51% 30.00 in 10.0 mi South 5.8 mph - N/A   Overcast
11:35 PM 84.2 °F 87.3 °F 68.0 °F 58% 30.00 in 10.0 mi SSE 4.6 mph - N/A   Scattered Clouds